Regional Weather Roundup
Issued by NWS

Home | Current Version | Previous Version | Text Only | Print | Product List | Glossary Off
Versions: 1 2 3 4 5 6 7 8 9 10 11 12 13 14 15 16 17 18 19 20 21 22 23 24 25 26 27 28 29 30 31 32 33 34 35 36 37 38 39 40 41 42 43 44 45 46 47 48 49 50

291
ASUS43 KOAX 241602
RWRNE

WEATHER ROUNDUP FOR NEBRASKA
NATIONAL WEATHER SERVICE OMAHA NE
1100 AM CDT TUE MAY 24 2016

NOTES: SATELLITE DATA IS BEING USED TO AUGMENT CLOUD COVER ABOVE
       12000 FEET.
       "FAIR" INDICATES FEW OR NO CLOUDS BELOW 12,000 FEET WITH NO
       SIGNIFICANT WEATHER AND/OR OBSTRUCTIONS TO VISIBILITY.

  * THESE STATIONS DO NOT REPORT WEATHER SUCH AS RAIN...SNOW OR FOG.

NEZ001>004-019>022-054>056-241700-
NEBRASKA PANHANDLE

CITY           SKY/WX    TMP DP  RH WIND       PRES   REMARKS
SCOTTSBLUFF    PTSUNNY   62  45  53 SE5       29.94F
ALLIANCE       PTSUNNY   66  47  50 SE6       29.93F
CHADRON        SUNNY     65  40  39 NE7       29.92F
SIDNEY         SUNNY     65  44  46 S8        29.96S
$$

NEZ057>060-069>072-079>082-241700-
SOUTHWEST NEBRASKA

CITY           SKY/WX    TMP DP  RH WIND       PRES   REMARKS
NORTH PLATTE   CLOUDY    69  55  60 W5        29.92S
IMPERIAL       SUNNY     67  54  63 SE10      29.93F
LEXINGTON      SUNNY     71  60  67 S9G16     29.92S
MCCOOK         SUNNY     70  58  65 SE13      29.93R
$$

NEZ005>010-023>029-035>040-094-241700-
NORTH CENTRAL NEBRASKA

CITY           SKY/WX    TMP DP  RH WIND       PRES   REMARKS
VALENTINE      SUNNY     70  43  37 CALM      29.91S
AINSWORTH      SUNNY     72  40  32 CALM      29.91S
BROKEN BOW     CLOUDY    74  55  51 CALM      29.92R
ORD            SUNNY     72  55  55 S5        29.89R
$$

NEZ041-046>049-061>064-073>077-083>087-241700-
SOUTH CENTRAL NEBRASKA

CITY           SKY/WX    TMP DP  RH WIND       PRES   REMARKS
GRAND ISLAND   SUNNY     74  57  55 SW8       29.90R
HASTINGS       SUNNY     71  59  65 S8        29.89R
KEARNEY *      SUNNY     70  59  68 S16       29.92R
YORK           MOSUNNY   68  63  83 NE3       29.90R
$$

NEZ011>018-030>034-042>045-241700-
NORTHEAST NEBRASKA

CITY           SKY/WX    TMP DP  RH WIND       PRES   REMARKS
NORFOLK        MOSUNNY   72  62  71 VRB3      29.87S
ALBION         SUNNY     72  63  73 CALM      29.89S
BLAIR          PTSUNNY   69  64  86 S12       29.89F
FREMONT        PTSUNNY   68  62  81 S7        29.90S
TEKAMAH        CLOUDY    69  64  84 S9        29.88F
$$

NEZ050>053-065>068-078-088>093-241700-
SOUTHEAST NEBRASKA

CITY           SKY/WX    TMP DP  RH WIND       PRES   REMARKS
LINCOLN        PTSUNNY   69  61  75 NE9       29.89R
OMAHA EPPLEY   CLOUDY    69  64  84 VRB3      29.88F
FALLS CITY     LGT RAIN  66  58  75 S17       29.87F
PLATTSMOUTH    CLOUDY    70  62  75 CALM      29.89S
$$

NEZ044-045-051>053-067-241700-
OMAHA AREA

CITY           SKY/WX    TMP DP  RH WIND       PRES   REMARKS
OMAHA EPPLEY   CLOUDY    69  64  84 VRB3      29.88F
BLAIR          PTSUNNY   69  64  86 S12       29.89F
FREMONT        PTSUNNY   68  62  81 S7        29.90S
OFFUTT AFB     CLOUDY    70  62  76 NW5       29.87F
PLATTSMOUTH    CLOUDY    70  62  75 CALM      29.89S
$$




USA.gov is the U.S. government's official web portal to all federal, state and local government web resources and services.